User: anonymous   Login
Location: Home
(42.5358°N, 72.7383°W)
Time: 01:00:30
(UTC-05:00)
Language:

SPROUT - Orbit

View from above orbital plane
View from above orbital plane
View from above satellite
View from above satellite

Ground track
Ground track

The orbit data is extracted from the following two-line orbital elements,

1 39770U 14029E   22027.89421176  .00002897  00000-0  31189-3 0  9994
2 39770  97.9290 144.2991 0008730 181.9016 178.2182 14.89249576416733
Epoch (UTC): 27 January 2022 21:27:39
Eccentricity: 0.0008730
inclination: 97.9290°
perigee height: 594 km
apogee height: 606 km
right ascension of ascending node: 144.2991°
argument of perigee: 181.9016°
revolutions per day: 14.89249576
mean anomaly at epoch: 178.2182°
orbit number at epoch: 41673

The dashed part of the orbit path shows where the satellite is in the earth's shadow,  

DLR